Terug naar catalogus

COSMOS 1275 DEB

ActiefPO
NORAD 39949·DEBRIS·🇷🇺 Russia

Gelanceerd Jun 4, 1981 vanaf Plesetsk Cosmodrome

Loading…

Volgende Passages (komende 24 uur)

TLE

VersSource: Space-Track

Epoch: Sep 12, 2026, 05:56 UTC

1 39949U 81053NK  26255.24775483  .00001245  00000-0  91434-3 0  9997
2 39949  82.8230 245.1908 0027431  22.2249 338.0100 13.94790015 46134

Volg COSMOS 1275 DEB in realtime met AllMySat

Download on the App Store